This is the latest recevied weather packets stored in our database for station/object K5OLV. If no packets are shown the sender has not sent any weather packets the latest 10 day(s).
| Time | Temp. | Humidity | Pressure | Rain* | Wind** | Luminosity | Snow |
|---|---|---|---|---|---|---|---|
| 1788184868 | 25° C | 88% | 1020.6 hPa | 0 mm | - | 409 W/m² | - |
| 1788184565 | 25.56° C | 86% | 1020.4 hPa | 0 mm | - | 388 W/m² | - |
| 1788184261 | 25.56° C | 88% | 1020.4 hPa | 0 mm | - | 208 W/m² | - |
| 1788183956 | 24.44° C | 90% | 1020.2 hPa | 0 mm | - | 281 W/m² | - |
| 1788183651 | 23.89° C | 88% | 1020.3 hPa | 0 mm | - | 99 W/m² | - |
| 1788183350 | 23.89° C | 88% | 1020.4 hPa | 0 mm | - | 119 W/m² | - |
| 1788183046 | 25° C | 86% | 1020.1 hPa | 0 mm | - | 130 W/m² | - |
| 1788182742 | 25.56° C | 85% | 1020.4 hPa | 0 mm | - | 103 W/m² | - |
| 1788182441 | 25° C | 85% | 1020.3 hPa | 0 mm | - | 239 W/m² | - |
| 1788182141 | 24.44° C | 87% | 1020.1 hPa | 0 mm | - | 228 W/m² | - |
| 1788181837 | 23.33° C | 89% | 1020.2 hPa | 0 mm | - | 208 W/m² | - |
| 1788181532 | 23.33° C | 90% | 1020.3 hPa | 0 mm | - | 152 W/m² | - |
| 1788181228 | 23.33° C | 91% | 1020.1 hPa | 0 mm | - | 62 W/m² | - |
| 1788180926 | 23.33° C | 91% | 1020.1 hPa | 0 mm | - | 57 W/m² | - |
| 1788180617 | 23.33° C | 91% | 1019.9 hPa | 0 mm | - | 53 W/m² | - |
| 1788180313 | 23.33° C | 91% | 1020 hPa | 0 mm | - | 56 W/m² | - |
| 1788180009 | 22.78° C | 92% | 1020 hPa | 0 mm | - | 50 W/m² | - |
| 1788179707 | 22.78° C | 93% | 1019.9 hPa | 0 mm | - | 46 W/m² | - |
| 1788179403 | 22.22° C | 94% | 1019.9 hPa | 0 mm | - | 45 W/m² | - |
| 1788179097 | 22.22° C | 94% | 1019.7 hPa | 0 mm | - | 42 W/m² | - |
| 1788178792 | 21.67° C | 94% | 1019.7 hPa | 0 mm | - | 39 W/m² | - |
| 1788178488 | 21.67° C | 94% | 1019.6 hPa | 0 mm | - | 35 W/m² | - |
| 1788178183 | 21.67° C | 94% | 1019.4 hPa | 0 mm | - | 33 W/m² | - |
| 1788177883 | 21.67° C | 94% | 1019.4 hPa | 0 mm | - | 31 W/m² | - |
| 1788177578 | 21.67° C | 95% | 1019.6 hPa | 0 mm | - | 29 W/m² | - |
* Rain latest hour (hover to see other rain measurements)
** Current wind speed in m/s (hover to see current wind gust speed)